{"data":{"norad_id":44547,"intl_designator":"2019-063A","name":"YUNHAI-1 02","alt_names":[],"object_type":"PAYLOAD","status":"ACTIVE","operator":null,"country":"PRC","launch_date":"2019-09-25","launch_site_code":"JSC","launch_vehicle":null,"mission":null,"orbit_class":"UNKNOWN","rcs_meters":null,"size_class":null,"mass_kg":null,"dimensions":null,"purposes":[],"wikipedia_slug":null,"has_3d_model":false,"image_url":null,"decayed_at":null,"tle_current":{"epoch":"2026-09-20T04:25:56.603424Z","epoch_age_seconds":88844,"freshness":"FRESH","line1":"1 44547U 19063A   26263.18468291  .00000195  00000+0  87653-4 0  9998","line2":"2 44547  98.4149 270.8796 0005108 232.2011 127.8712 14.32600947365474","mean_motion":14.32600947,"eccentricity":0.0005108,"inclination_deg":98.4149,"raan_deg":270.8796,"arg_perigee_deg":232.2011,"mean_anomaly_deg":127.8712,"bstar":8.7653e-5,"rev_number":36547,"period_min":100.51647690276,"perigee_km":779.39213352788,"apogee_km":786.70800223643,"semimajor_km":7161.1870678822,"source":"CELESTRAK","updated_at":"2026-09-20T09:00:14.534237Z"}}}